Location: Moulis
(42.9609°N, 1.0909°E)
Time: 03:33:57
(UTC+00:00)

Cosmos 1933 - Visible Passes

Search period start: 17 March 2026 00:00
Search period end: 27 March 2026 00:00
Orbit: 509 x 515 km, 82.5° (Epoch: 16 March)

Date Brightness Start Highest point End Pass type
(mag) Time Alt. Az. Time Alt. Az. Time Alt. Az.
17 Mar 5.2 04:16:48 10° SSE 04:20:08 29° E 04:23:29 10° NNE visible
18 Mar 5.6 04:00:51 10° SE 04:03:55 23° E 04:06:59 10° NE visible
19 Mar 5.9 03:44:58 10° SE 03:47:42 19° E 03:50:26 10° NE visible
19 Mar 4.1 05:19:47 10° SW 05:23:06 28° WNW 05:26:27 10° NNW visible
20 Mar 6.2 03:29:13 10° ESE 03:31:28 15° E 03:33:44 10° NE visible
20 Mar 3.8 05:03:15 10° SW 05:06:47 35° WNW 05:10:19 10° N visible
21 Mar 6.3 03:13:43 10° ESE 03:15:16 12° E 03:16:49 10° ENE visible
21 Mar 3.5 04:47:12 13° SSW 04:50:26 44° WNW 04:54:08 10° N visible
22 Mar 3.2 04:31:46 21° SSW 04:34:07 57° W 04:37:53 10° N visible
23 Mar 3.0 04:16:12 33° SSW 04:17:47 74° W 04:21:37 10° N visible
24 Mar 3.1 04:00:32 50° S 04:01:28 85° E 04:05:18 10° N visible
25 Mar 3.4 03:44:47 61° SE 03:45:09 66° E 03:48:57 10° NNE visible
26 Mar 3.9 03:28:58 51° E 03:28:58 51° E 03:32:33 10° NNE visible
26 Mar 5.2 05:03:54 11° W 05:04:47 11° WNW 05:06:04 10° NW visible
